TimeCST,TemperatureF,Dew PointF,Humidity,Sea Level PressureIn,VisibilityMPH,Wind Direction,Wind SpeedMPH,Gust SpeedMPH,PrecipitationIn,Events,Conditions,WindDirDegrees,DateUTC
12:17 AM,28.4,26.6,93,29.99,7.0,SE,11.5,-,N/A,,Overcast,140,2012-12-01 06:17:00
12:36 AM,28.4,26.6,93,29.98,7.0,SSE,9.2,-,N/A,,Overcast,150,2012-12-01 06:36:00
12:57 AM,28.4,28.4,100,29.97,7.0,SSE,8.1,-,N/A,,Overcast,150,2012-12-01 06:57:00
1:17 AM,28.4,28.4,100,29.96,7.0,SSE,9.2,-,N/A,,Overcast,150,2012-12-01 07:17:00
1:36 AM,28.4,28.4,100,29.96,7.0,SSE,8.1,-,N/A,,Overcast,150,2012-12-01 07:36:00
1:57 AM,28.4,28.4,100,29.95,5.0,SSE,6.9,-,N/A,,Overcast,150,2012-12-01 07:57:00
2:17 AM,30.2,28.4,93,29.95,5.0,SSE,5.8,-,N/A,,Overcast,150,2012-12-01 08:17:00
3:36 AM,30.2,28.4,93,29.91,5.0,SSE,8.1,-,N/A,,Overcast,150,2012-12-01 09:36:00
3:57 AM,30.2,28.4,93,29.90,5.0,SSE,6.9,-,N/A,,Overcast,160,2012-12-01 09:57:00
4:17 AM,30.2,30.2,100,29.89,5.0,SSE,9.2,-,N/A,,Overcast,160,2012-12-01 10:17:00
4:37 AM,30.2,30.2,100,29.88,4.0,SSE,8.1,-,N/A,,Overcast,150,2012-12-01 10:37:00
5:17 AM,30.2,30.2,100,29.84,4.0,SE,10.4,16.1,N/A,,Overcast,140,2012-12-01 11:17:00
6:17 AM,32.0,30.2,93,29.82,3.0,SSE,12.7,20.7,N/A,,Overcast,150,2012-12-01 12:17:00
6:37 AM,32.0,30.2,93,29.80,3.0,SE,10.4,18.4,N/A,,Overcast,140,2012-12-01 12:37:00
7:17 AM,33.8,32.0,93,29.79,3.0,SE,12.7,17.3,N/A,,Overcast,140,2012-12-01 13:17:00
7:37 AM,33.8,32.0,93,29.80,4.0,SSE,6.9,23.0,N/A,,Overcast,160,2012-12-01 13:37:00
7:56 AM,33.8,32.0,93,29.78,3.0,SSE,10.4,18.4,N/A,,Overcast,150,2012-12-01 13:56:00
8:17 AM,33.8,32.0,93,29.78,2.0,SSE,10.4,18.4,N/A,,Overcast,160,2012-12-01 14:17:00
8:37 AM,33.8,32.0,93,29.78,2.0,SSE,8.1,16.1,N/A,,Overcast,160,2012-12-01 14:37:00
9:17 AM,33.8,32.0,93,29.79,1.8,South,9.2,-,N/A,,Overcast,170,2012-12-01 15:17:00
9:37 AM,33.8,32.0,93,29.78,1.8,SSE,8.1,-,N/A,,Overcast,160,2012-12-01 15:37:00
9:56 AM,33.8,32.0,93,29.78,1.5,SSE,10.4,-,N/A,,Overcast,160,2012-12-01 15:56:00
10:17 AM,33.8,32.0,93,29.78,1.2,SSE,9.2,-,N/A,,Overcast,160,2012-12-01 16:17:00
10:37 AM,33.8,32.0,93,29.78,1.2,SSE,5.8,-,N/A,,Overcast,160,2012-12-01 16:37:00
10:56 AM,33.8,33.8,100,29.77,1.0,South,10.4,-,N/A,,Overcast,170,2012-12-01 16:56:00
11:17 AM,33.8,33.8,100,29.76,1.0,SSE,6.9,-,N/A,,Overcast,160,2012-12-01 17:17:00
11:37 AM,33.8,33.8,100,29.75,0.8,SSE,5.8,-,N/A,,Overcast,160,2012-12-01 17:37:00
11:57 AM,33.8,33.8,100,29.75,1.0,SSE,5.8,-,N/A,,Overcast,160,2012-12-01 17:57:00
12:17 PM,33.8,33.8,100,29.73,1.0,SSE,6.9,-,N/A,,Overcast,160,2012-12-01 18:17:00
12:36 PM,33.8,33.8,100,29.73,1.2,SSE,5.8,-,N/A,,Overcast,160,2012-12-01 18:36:00
12:57 PM,33.8,33.8,100,29.72,1.2,SSE,3.5,-,N/A,,Overcast,160,2012-12-01 18:57:00
1:17 PM,33.8,33.8,100,29.72,1.2,Calm,Calm,-,N/A,,Overcast,0,2012-12-01 19:17:00
1:36 PM,33.8,33.8,100,29.71,1.0,Calm,Calm,-,N/A,,Overcast,0,2012-12-01 19:36:00
1:57 PM,33.8,33.8,100,29.71,1.0,SSE,3.5,-,N/A,,Overcast,150,2012-12-01 19:57:00
2:17 PM,33.8,33.8,100,29.71,1.0,Calm,Calm,-,N/A,,Overcast,0,2012-12-01 20:17:00
2:36 PM,33.8,33.8,100,29.71,1.0,Calm,Calm,-,N/A,,Overcast,0,2012-12-01 20:36:00
3:17 PM,33.8,33.8,100,29.71,1.0,Calm,Calm,-,N/A,,Overcast,0,2012-12-01 21:17:00
3:36 PM,33.8,33.8,100,29.71,1.0,Calm,Calm,-,N/A,,Overcast,0,2012-12-01 21:36:00
4:16 PM,33.8,33.8,100,29.72,0.8,Calm,Calm,-,N/A,,Overcast,0,2012-12-01 22:16:00
4:37 PM,33.8,33.8,100,29.73,1.8,Calm,Calm,-,N/A,,Overcast,0,2012-12-01 22:37:00
5:17 PM,33.8,33.8,100,29.74,0.5,Calm,Calm,-,N/A,Fog,Fog,0,2012-12-01 23:17:00
5:56 PM,33.8,33.8,100,29.75,0.2,Calm,Calm,-,N/A,Fog,Fog,0,2012-12-01 23:56:00
6:17 PM,33.8,33.8,100,29.75,0.2,Calm,Calm,-,N/A,Fog,Fog,0,2012-12-02 00:17:00
6:37 PM,33.8,33.8,100,29.75,0.2,Calm,Calm,-,N/A,Fog,Fog,0,2012-12-02 00:37:00
6:56 PM,33.8,33.8,100,29.75,0.5,Calm,Calm,-,N/A,Fog,Fog,0,2012-12-02 00:56:00
7:17 PM,33.8,33.8,100,29.75,0.5,Calm,Calm,-,N/A,Fog,Fog,0,2012-12-02 01:17:00
7:36 PM,33.8,33.8,100,29.75,0.2,Calm,Calm,-,N/A,Fog,Fog,0,2012-12-02 01:36:00
7:57 PM,33.8,33.8,100,29.75,0.2,Calm,Calm,-,N/A,Fog,Fog,0,2012-12-02 01:57:00
8:17 PM,33.8,33.8,100,29.75,0.2,Calm,Calm,-,N/A,Fog,Fog,0,2012-12-02 02:17:00
8:36 PM,33.8,33.8,100,29.76,0.2,Calm,Calm,-,N/A,Fog,Fog,0,2012-12-02 02:36:00
8:57 PM,33.8,33.8,100,29.77,0.2,Calm,Calm,-,N/A,Fog,Fog,0,2012-12-02 02:57:00
9:17 PM,33.8,33.8,100,29.78,0.2,Calm,Calm,-,N/A,Fog,Fog,0,2012-12-02 03:17:00
9:36 PM,33.8,33.8,100,29.79,0.2,West,3.5,-,N/A,Fog,Fog,270,2012-12-02 03:36:00
9:57 PM,33.8,33.8,100,29.79,0.2,Calm,Calm,-,N/A,Fog,Fog,0,2012-12-02 03:57:00
10:16 PM,33.8,33.8,100,29.79,0.2,Calm,Calm,-,N/A,Fog,Fog,0,2012-12-02 04:16:00
10:36 PM,33.8,33.8,100,29.80,0.2,Calm,Calm,-,N/A,Fog,Fog,0,2012-12-02 04:36:00
10:57 PM,33.8,33.8,100,29.79,0.2,Calm,Calm,-,N/A,Fog,Fog,0,2012-12-02 04:57:00
11:16 PM,33.8,33.8,100,29.81,0.2,Calm,Calm,-,N/A,Fog,Fog,0,2012-12-02 05:16:00
11:36 PM,33.8,33.8,100,29.81,0.2,Calm,Calm,-,N/A,Fog,Fog,0,2012-12-02 05:36:00
11:57 PM,33.8,33.8,100,29.82,0.2,Calm,Calm,-,N/A,Fog,Fog,0,2012-12-02 05:57:00